Terminal Aerodrome Forecast
Issued by NWS Springfield, MO

Home | Current Version | Previous Version | Text Only | Print | Product List | Glossary On
Versions: 1 2 3 4 5 6 7 8 9 10 11 12 13 14 15
000
FTUS43 KSGF 271900 AAA
TAFSGF
TAF AMD
KSGF 271937Z 2720/2818 36011G17KT P6SM BKN200
     FM280100 35005KT P6SM SCT250
     FM281500 35010KT P6SM SKC=

USA.gov is the U.S. government's official web portal to all federal, state and local government web resources and services.